Flag for Germany Weather past 2 weeks in Hürth, North Rhine-Westphalia, Germany

Now
61 °F

Partly sunny.


Feels Like: 61 °F
Forecast: 52 / 81 °F
Wind: 2 mph from South

Location: Noervenich

Current Time: Aug 4, 2015 at 10:52:17 PM

Latest Report: Aug 4, 2015 at 9:20 PM


Visibility: N/A

Pressure: 30.07 "Hg

Humidity: 94%

Dew point: 59 °F

Location of HürthLocation

Historic Weather in Hürth — Graph

°F

Hürth temperature yesterday

Maximum temperature yesterday: 91 °F (at 5:20 PM)
Minimum temperature yesterday: 59 °F (at 3:20 AM)
Average temperature yesterday: 76 °F

Past Weeks' High & Low Weather Summary

 TemperatureHumidityPressure
High91 °F (Aug 3, 5:20 PM)100% (Jul 30, 10:20 PM)30.15 "Hg (Jul 30, 10:20 PM)
Low46 °F (Jul 31, 6:20 AM)26% (Aug 3, 6:20 PM)29.53 "Hg (Jul 25, 7:20 AM)
Average64 °F69%29.91 "Hg
* Reported Jul 20 9:20 PM — Aug 4 9:20 PM, Hürth, Weather by CustomWeather, © 2015

Note: Actual official high and low records may vary slightly from our data, if they occured in-between our weather recording intervals... More about our weather records

Advertising

Hürth weather history for previous 24 hours

 ConditionsComfort  
Time TempWeatherWind HumidityBarometerVisibility
9:20 PM
Tue, Aug 4
61 °FPartly sunny.2 mph94%30.07 "HgN/A
8:20 PM66 °FPartly sunny.2 mph73%30.04 "HgN/A
7:20 PM66 °FPartly sunny.3 mph73%30.04 "HgN/A
6:20 PM66 °FScattered clouds.7 mph73%30.04 "HgN/A
5:20 PM64 °FPartly sunny.7 mph78%30.01 "HgN/A
5:03 PM63 °FPartly sunny.8 mph83%30.01 "HgN/A
4:20 PM63 °FLight rain. Partly sunny.13 mph88%30.01 "HgN/A
3:20 PM63 °FPartly sunny.9 mph94%29.98 "Hg5 mi
2:48 PM63 °FBroken clouds.14 mph94%29.98 "Hg4 mi
2:20 PM66 °FFog.8 mph88%29.95 "Hg3 mi
1:20 PM68 °FBroken clouds.3 mph88%29.95 "HgN/A
12:20 PM66 °FRain. More clouds than sun.1 mph94%29.92 "HgN/A
11:20 AM66 °FSprinkles. Fog.1 mph88%29.92 "Hg3 mi
10:58 AM66 °FLight rain. Fog.6 mph88%29.95 "Hg3 mi
10:20 AM70 °FSprinkles. Broken clouds.8 mph78%29.89 "Hg6 mi
9:20 AM68 °FBroken clouds.3 mph88%29.86 "HgN/A
8:20 AM70 °FSprinkles. Broken clouds.5 mph78%29.83 "Hg6 mi
7:20 AM68 °FSprinkles. Partly sunny.5 mph78%29.86 "Hg6 mi
6:49 AM70 °FThunderstorms. Passing clouds.5 mph64%29.83 "HgN/A
6:20 AM70 °FSprinkles. Passing clouds.3 mph60%29.80 "HgN/A
5:20 AM70 °FPassing clouds.3 mph60%29.83 "HgN/A
4:20 AM68 °FPassing clouds.3 mph64%29.83 "HgN/A
3:20 AM68 °FPassing clouds.3 mph64%29.86 "HgN/A
2:20 AM72 °FPassing clouds.2 mph57%29.86 "HgN/A
1:20 AM70 °FPassing clouds.3 mph64%29.89 "HgN/A
12:20 AM73 °FPassing clouds.3 mph57%29.89 "HgN/A
11:20 PM
Mon, Aug 3
72 °FPassing clouds.2 mph61%29.92 "HgN/A
10:20 PM75 °FPassing clouds.3 mph54%29.92 "HgN/A
Weather by CustomWeather, © 2015

See weather overviewHow to use our weather pages